Regional Weather Roundup
Issued by NWS

Home | Current Version | Previous Version | Text Only | Print | Product List | Glossary Off
Versions: 1 2 3 4 5 6 7 8 9 10 11 12 13 14 15 16 17 18 19 20 21 22 23 24 25 26 27 28 29 30 31 32 33 34 35 36 37 38 39 40 41 42 43 44 45 46 47 48 49 50

000
ASUS44 KMEG 261410
RWRTN
TENNESSEE HOURLY STATE WEATHER ROUNDUP
NATIONAL WEATHER SERVICE MEMPHIS TN
900 AM CDT TUE JUL 26 2016

TNZ002-004-019-021-049-052-054-088>092-261500-
WEST TENNESSEE

CITY           SKY/WX    TMP DP  RH WIND       PRES   REMARKS
MEMPHIS INTL   MOSUNNY   86  75  69 S3        30.01S HX  95
NWS MEMPHIS      N/A     85 N/A N/A MISG        N/A
JACKSON        SUNNY     83  74  74 S3        30.03S
DYERSBURG      SUNNY     82  75  78 MISG      30.02S
UNION CITY     SUNNY     84  77  79 CALM      30.02S HX  94
PARIS          SUNNY     81  73  78 CALM      30.04S
LEXINGTON      SUNNY     81  73  78 S3        30.04S
$$

TNZ008-025-027-028-033-062-065-066-261500-
NORTH MIDDLE TENNESSEE

CITY           SKY/WX    TMP DP  RH WIND       PRES   REMARKS
NASHVILLE      MOSUNNY   85  74  69 SE3       30.05S HX  92
CLARKSVILLE    SUNNY     81  75  82 VRB3      30.03F
SMYRNA         SUNNY     83  74  74 SW6       30.06S
COOKEVILLE     SUNNY     82  73  74 CALM      30.07S
CROSSVILLE     CLOUDY    80  71  74 W3        30.13S
$$

TNZ061-075-076-078-094-096-097-261500-
SOUTH MIDDLE TENNESSEE

CITY           SKY/WX    TMP DP  RH WIND       PRES   REMARKS
FAYETTEVILLE   SUNNY     81  73  78 SW6       30.08S
TULLAHOMA      SUNNY     79  72  78 SW6       30.10S
WINCHESTER     SUNNY     81  72  74 CALM      30.09S
MCMINNVILLE    SUNNY     79  77  94 CALM      30.09S
COLUMBIA       SUNNY     82  82 100 S8        30.05S HX  97
SHELBYVILLE    MOSUNNY   81  75  83 SW3       30.08S
$$

TNZ017-018-042-046-047-261500-
NORTHEAST TENNESSEE

CITY           SKY/WX    TMP DP  RH WIND       PRES   REMARKS
TRI CITIES     MOSUNNY   81  71  71 CALM      30.12S
ELIZABETHTON   PTSUNNY   81  72  74 VRB5      30.12S
$$

TNZ012-013-036-069-073-074-261500-
CENTRAL EAST TENNESSEE

CITY           SKY/WX    TMP DP  RH WIND       PRES   REMARKS
KNOXVILLE      CLOUDY    83  71  67 VRB3      30.07S
OAK RIDGE      CLOUDY    83  72  69 SW3       30.09S
GATLINBURG     SUNNY     84  70  61 CALM      30.07F
MORRISTOWN     SUNNY     81  73  78 SW6       30.09F
$$

TNZ083-085-099-261500-
SOUTHEAST TENNESSEE

CITY           SKY/WX    TMP DP  RH WIND       PRES   REMARKS
CHATTANOOGA    CLOUDY    80  72  76 CALM      30.08S
$$

SKY/WX REPORTED AS FAIR MEANS FEW OR NO CLOUDS BELOW
12 THOUSAND FEET.





USA.gov is the U.S. government's official web portal to all federal, state and local government web resources and services.